Regional Weather Roundup
Issued by NWS

Home | Current Version | Previous Version | Graphics & Text | Print | Product List | Glossary On
Versions: 1 2 3 4 5 6 7 8 9 10 11 12 13 14 15 16 17 18 19 20 21 22 23 24 25 26 27 28 29 30 31 32 33 34 35 36 37 38 39 40 41 42 43 44 45 46 47 48 49 50
000
ASUS45 KBOU 012107
RWRCO

WEATHER ROUNDUP FOR COLORADO
NATIONAL WEATHER SERVICE DENVER/BOULDER CO
300 PM MDT WED APR 01 2015

NOTE: "FAIR" INDICATES FEW OR NO CLOUDS BELOW 12000 FEET WITH NO
SIGNIFICANT WEATHER AND/OR OBSTRUCTIONS TO VISIBILITY.

COZ001>005-013-030-031-012200-
...NORTHWEST COLORADO...

CITY           SKY/WX    TMP DP  RH WIND       PRES   REMARKS
CRAIG          CLOUDY    56  24  29 NW8       29.89F
HAYDEN         MOSUNNY   52  19  28 NW16G23   29.90S
MEEKER         PTSUNNY   58  10  15 W20G25    29.90F
MOUNT WERNER   NOT AVBL
STEAMBOAT SPGS CLOUDY    48  22  34 W12       29.90S
WALDEN         MOSUNNY   50  21  32 W22G30    29.89R
$$

COZ006>008-011-012200-
...WEST CENTRAL VALLEYS...

CITY           SKY/WX    TMP DP  RH WIND       PRES   REMARKS
GRAND JUNCTION   N/A     68  17  14 W26G37    29.83F
MONTROSE       PTSUNNY   59  24  26 SW31G41   29.89R
EAGLE          PTSUNNY   57  27  30 SW26G40   29.88R
RIFLE          PTSUNNY   63  20  19 NW15G22   29.84F
DELTA          PTSUNNY   70  18  14 W17G28    29.83F
NUCLA          PTSUNNY   63  23  22 SW13G18   29.92F
$$

COZ017>023-064>068-012200-
...SOUTHWEST COLORADO...

CITY           SKY/WX    TMP DP  RH WIND       PRES   REMARKS
DURANGO        MOSUNNY   66  18  15 W18G31    29.93F
CORTEZ         MOSUNNY   70  10  10 SW14G33   29.90F
PAGOSA SPRINGS MOSUNNY   61  11  14 SW23G32   29.95F
TELLURIDE      CLOUDY    46  22  39 NW14G36   30.04R
WOLF CREEK PAS CLOUDY    36  16  44 SW31G58   30.11F
$$

COZ009-010-012-014-032>034-037-058>063-012200-
...CENTRAL COLORADO...

CITY           SKY/WX    TMP DP  RH WIND       PRES   REMARKS
ASPEN          LGT RAIN  40  33  76 SW8       29.98R
BUENA VISTA    MOSUNNY   59  17  19 SW21G29   29.88F
COPPER MTN     CLOUDY    34  21  60 W28G37    30.04S HAZE    WCI  20
BERTHOUD PASS  PTSUNNY   32  25  74 SW28G36   30.04F WCI  18
COTTONWOOD PAS CLOUDY    48  12  23 W24G38    29.95F
GUNNISON       MOSUNNY   52  18  25 SW21G33   29.95R
KREMMLING      PTSUNNY   52  23  32 NW12G24   29.88R
LEADVILLE      LGT SNOW  34  28  79 W16G36    29.99R WCI  24
SALIDA         MOSUNNY   65   9  11 W21G37    29.92F
SUNLIGHT       CLOUDY    39  27  60 CALM      30.04F
WILKERSON PASS MOSUNNY   46  18  31 SW9G23    30.02F
$$

COZ069>075-012200-
...SAN LUIS VALLEY/SANGRE DE CRISTO MOUNTAINS...

CITY           SKY/WX    TMP DP  RH WIND       PRES   REMARKS
ALAMOSA        MOSUNNY   65  18  16 SW23G33   29.89F
LA VETA PASS   MOSUNNY   52  19  28 S14G30    29.98F
SAGUACHE       MOSUNNY   61  16  17 NW9G22    29.88F
$$

COZ035-036-038>040-012200-
...NORTHERN COLORADO FRONT RANGE...

CITY           SKY/WX    TMP DP  RH WIND       PRES   REMARKS
DENVER INTL AP CLOUDY    70  25  18 W9G21     29.72F
DMNS CITY PARK   N/A     68  20  16 SW5       29.71F
AURORA         PTSUNNY   64  23  20 NW14G24   29.74S
FRONT RANGE AP PTSUNNY   68  27  21 NW12G20   29.73F
ERIE MUNI ARPT PTSUNNY   68  19  15 NW10      29.71S
BOULDER MUN AP PTSUNNY   64  27  24 SW3       29.72S
CENTENNIAL     PTSUNNY   67  21  17 NE15G25   29.73F
BROOMFIELD     CLOUDY    68  21  17 W15G25    29.73F
FORT COLLINS   CLOUDY    64  30  27 N13       29.73S
LONGMONT       CLOUDY    73  23  15 W6G17     29.72F
$$

COZ041-046-047-076>085-087-088-012200-
...PIKES PEAK/PALMER DIVIDE AND SOUTHERN FOOTHILLS...

CITY           SKY/WX    TMP DP  RH WIND       PRES   REMARKS
COLO. SPRINGS  PTSUNNY   72  16  12 W25G35    29.74F
A. F. ACADEMY  PTSUNNY   69  16  13 SW15G24   29.76F
ELLICOTT       NOT AVBL
FALCON         PTSUNNY   66  15  14 SW9G25    29.80F
FORT CARSON    PTSUNNY   70  21  16 S23G32    29.72F
LIMON          PTSUNNY   69  19  15 W10       29.71S
MONUMENT HILL  CLOUDY    61  19  20 N7        29.78F
TRINIDAD       MOSUNNY   74  18  12 W16G26    29.77F
$$

COZ042>045-048>051-090-091-012200-
...NORTHEAST COLORADO...

CITY           SKY/WX    TMP DP  RH WIND       PRES   REMARKS
GREELEY ARPT   CLOUDY    72  27  18 NW8G17    29.70R
AKRON          MOSUNNY   75  21  13 VRB5      29.68F
BURLINGTON     SUNNY     79  21  11 NE6       29.65F
WRAY           MOSUNNY   81  25  12 NW8       29.62F
STERLING       MOSUNNY   75  30  19 N10G21    29.64F
HOLYOKE        MOSUNNY   77  28  16 N18G25    29.64S
FORT MORGAN    MOSUNNY   73  21  14 NW18G25   29.69R
$$

COZ086-089-092>099-012200-
...SOUTHEAST COLORADO...

CITY           SKY/WX    TMP DP  RH WIND       PRES   REMARKS
PUEBLO         MOSUNNY   73  19  13 S6        29.67F
LA JUNTA       MOSUNNY   83  23  11 W12G18    29.64F
LAMAR          SUNNY     84  24  11 SW10G24   29.61F
SPRINGFIELD      N/A     81  24  12 MISG      29.66F
$$


USA.gov is the U.S. government's official web portal to all federal, state and local government web resources and services.